Location: Devargunta
(16.7631°N, 80.9077°E)
Time: 19:43:02
(UTC+00:00)

Cosmos 1634 Rocket - Pass Details

Date: 19 January 2021
Orbit: 961 x 991 km, 82.9° (Epoch: 03 March)

Event Time Altitude Azimuth Distance (km) Brightness Sun altitude
Rises 12:37:36 0° 353° (N) 3,670 6.9 -3.6°
Reaches altitude 10° 12:40:06 10° 351° (N) 2,726 6.2 -4.1°
Maximum altitude 12:46:20 75° 267° (W) 1,017 4.3 -5.5°
Drops below altitude 10° 12:52:37 10° 183° (S) 2,739 6.7 -6.9°
Sets 12:55:08 0° 181° (S) 3,689 7.3 -7.5°
